Time,TemperatureF,DewpointF,PressureIn,WindDirection,WindDirectionDegrees,WindSpeedMPH,WindSpeedGustMPH,Humidity,HourlyPrecipIn,Conditions,Clouds,dailyrainin,SoftwareType,DateUTC
2013-04-25 00:01:00,37.1,34.2,30.25,SW,233,1.0,1.0,89,0.00,,FEW040,0.00,VWS V14.01,2013-04-25 04:01:00,
2013-04-25 00:06:00,37.0,34.3,30.25,SW,221,0.0,1.0,90,0.00,,FEW040,0.00,VWS V14.01,2013-04-25 04:06:00,
2013-04-25 00:11:00,36.7,34.0,30.25,South,191,1.0,1.0,90,0.00,,FEW040,0.00,VWS V14.01,2013-04-25 04:11:00,
2013-04-25 00:16:00,36.3,33.7,30.25,South,191,0.0,0.0,90,0.00,,FEW040,0.00,VWS V14.01,2013-04-25 04:16:00,
2013-04-25 00:21:00,35.9,33.5,30.26,SSW,198,1.0,1.0,91,0.00,,FEW040,0.00,VWS V14.01,2013-04-25 04:21:00,
2013-04-25 00:26:00,35.9,33.8,30.26,SSW,210,2.0,3.0,92,0.00,,FEW040,0.00,VWS V14.01,2013-04-25 04:26:00,
2013-04-25 00:31:00,36.2,34.1,30.26,South,188,2.0,4.0,92,0.00,,FEW040,0.00,VWS V14.01,2013-04-25 04:31:00,
2013-04-25 00:36:00,36.4,34.3,30.27,SSW,205,3.0,5.0,92,0.00,,FEW040,0.00,VWS V14.01,2013-04-25 04:36:00,
2013-04-25 00:41:00,36.5,34.1,30.27,SSW,193,3.0,4.0,91,0.00,,FEW040,0.00,VWS V14.01,2013-04-25 04:41:00,
2013-04-25 00:46:00,36.6,34.2,30.27,SW,214,3.0,5.0,91,0.00,,FEW040,0.00,VWS V14.01,2013-04-25 04:46:00,
2013-04-25 00:51:00,36.7,34.3,30.27,SSW,208,2.0,5.0,91,0.00,,FEW040,0.00,VWS V14.01,2013-04-25 04:51:00,
2013-04-25 00:56:00,36.7,34.3,30.28,SW,214,4.0,5.0,91,0.00,,FEW040,0.00,VWS V14.01,2013-04-25 04:56:00,
2013-04-25 01:01:00,36.7,34.0,30.28,SW,229,5.0,5.0,90,0.00,,CLR,0.00,VWS V14.01,2013-04-25 05:01:00,
2013-04-25 01:06:00,36.6,34.0,30.28,SSW,203,1.0,4.0,90,0.00,,CLR,0.00,VWS V14.01,2013-04-25 05:06:00,
2013-04-25 01:11:00,36.5,34.1,30.28,SW,218,4.0,4.0,91,0.00,,CLR,0.00,VWS V14.01,2013-04-25 05:11:00,
2013-04-25 01:16:00,36.5,33.8,30.28,South,180,1.0,2.0,90,0.00,,CLR,0.00,VWS V14.01,2013-04-25 05:16:00,
2013-04-25 01:21:00,36.5,33.8,30.28,SSW,201,1.0,3.0,90,0.00,,CLR,0.00,VWS V14.01,2013-04-25 05:21:00,
2013-04-25 01:26:00,36.4,33.8,30.29,SW,223,3.0,3.0,90,0.00,,CLR,0.00,VWS V14.01,2013-04-25 05:26:00,
2013-04-25 01:31:00,36.4,34.0,30.29,SSW,194,2.0,4.0,91,0.00,,CLR,0.00,VWS V14.01,2013-04-25 05:31:00,
2013-04-25 01:36:00,36.4,33.8,30.29,SSW,201,4.0,5.0,90,0.00,,CLR,0.00,VWS V14.01,2013-04-25 05:36:00,
2013-04-25 01:41:00,36.4,33.8,30.29,SSW,205,1.0,4.0,90,0.00,,CLR,0.00,VWS V14.01,2013-04-25 05:41:00,
2013-04-25 01:46:00,36.4,33.8,30.29,SSW,210,2.0,4.0,90,0.00,,CLR,0.00,VWS V14.01,2013-04-25 05:46:00,
2013-04-25 01:51:00,36.4,33.8,30.29,South,169,3.0,4.0,90,0.00,,CLR,0.00,VWS V14.01,2013-04-25 05:51:00,
2013-04-25 01:56:00,36.5,33.8,30.29,South,191,4.0,5.0,90,0.00,,CLR,0.00,VWS V14.01,2013-04-25 05:56:00,
2013-04-25 02:01:00,36.6,34.0,30.29,SSW,210,2.0,5.0,90,0.00,,FEW040,0.00,VWS V14.01,2013-04-25 06:01:00,
2013-04-25 02:06:00,36.5,33.8,30.29,SSW,199,2.0,3.0,90,0.00,,FEW040,0.00,VWS V14.01,2013-04-25 06:06:00,
2013-04-25 02:11:00,36.4,33.8,30.29,WSW,246,3.0,4.0,90,0.00,,FEW040,0.00,VWS V14.01,2013-04-25 06:11:00,
2013-04-25 02:16:00,36.4,33.8,30.28,SW,214,3.0,3.0,90,0.00,,FEW040,0.00,VWS V14.01,2013-04-25 06:16:00,
2013-04-25 02:21:00,36.3,33.9,30.29,SSW,207,1.0,2.0,91,0.00,,FEW040,0.00,VWS V14.01,2013-04-25 06:21:00,
2013-04-25 02:26:00,36.2,33.8,30.28,SW,222,1.0,2.0,91,0.00,,FEW040,0.00,VWS V14.01,2013-04-25 06:26:00,
2013-04-25 02:31:00,36.1,33.7,30.29,SSW,193,2.0,3.0,91,0.00,,FEW040,0.00,VWS V14.01,2013-04-25 06:31:00,
2013-04-25 02:36:00,36.1,33.7,30.29,South,169,1.0,2.0,91,0.00,,FEW040,0.00,VWS V14.01,2013-04-25 06:36:00,
2013-04-25 02:41:00,36.2,34.1,30.29,SSW,212,3.0,4.0,92,0.00,,FEW040,0.00,VWS V14.01,2013-04-25 06:41:00,
2013-04-25 02:46:00,36.3,34.5,30.28,SW,231,1.0,4.0,93,0.00,,FEW040,0.00,VWS V14.01,2013-04-25 06:46:00,
2013-04-25 02:51:00,36.1,34.0,30.28,SSW,203,3.0,4.0,92,0.00,,FEW040,0.00,VWS V14.01,2013-04-25 06:51:00,
2013-04-25 02:56:00,36.0,33.9,30.29,SSW,198,4.0,4.0,92,0.00,,FEW040,0.00,VWS V14.01,2013-04-25 06:56:00,
2013-04-25 03:01:00,35.9,33.8,30.29,SW,217,2.0,4.0,92,0.00,,FEW150,0.00,VWS V14.01,2013-04-25 07:01:00,
2013-04-25 03:06:00,35.9,33.8,30.29,SSW,210,2.0,3.0,92,0.00,,FEW150,0.00,VWS V14.01,2013-04-25 07:06:00,
2013-04-25 03:11:00,35.9,33.8,30.29,SW,214,2.0,4.0,92,0.00,,FEW150,0.00,VWS V14.01,2013-04-25 07:11:00,
2013-04-25 03:16:00,35.9,33.8,30.29,SSW,203,3.0,4.0,92,0.00,,FEW150,0.00,VWS V14.01,2013-04-25 07:16:00,
2013-04-25 03:21:00,36.1,34.3,30.29,SSW,210,2.0,4.0,93,0.00,,FEW150,0.00,VWS V14.01,2013-04-25 07:21:00,
2013-04-25 03:26:00,36.1,34.0,30.29,SSW,211,3.0,4.0,92,0.00,,FEW150,0.00,VWS V14.01,2013-04-25 07:26:00,
2013-04-25 03:31:00,35.9,33.8,30.29,SSW,200,2.0,4.0,92,0.00,,FEW150,0.00,VWS V14.01,2013-04-25 07:31:00,
2013-04-25 03:36:00,35.8,33.7,30.29,SW,217,3.0,6.0,92,0.00,,FEW150,0.00,VWS V14.01,2013-04-25 07:36:00,
2013-04-25 03:41:00,35.9,33.8,30.29,South,190,3.0,6.0,92,0.00,,FEW150,0.00,VWS V14.01,2013-04-25 07:41:00,
2013-04-25 03:46:00,35.9,33.8,30.29,SW,224,4.0,4.0,92,0.00,,FEW150,0.00,VWS V14.01,2013-04-25 07:46:00,
2013-04-25 03:51:00,35.9,33.8,30.29,SSE,150,3.0,5.0,92,0.00,,FEW150,0.00,VWS V14.01,2013-04-25 07:51:00,
2013-04-25 03:56:00,36.0,34.2,30.29,SSW,200,5.0,6.0,93,0.00,,FEW150,0.00,VWS V14.01,2013-04-25 07:56:00,
2013-04-25 04:01:00,35.9,33.8,30.29,SSW,196,3.0,4.0,92,0.00,,,0.00,VWS V14.01,2013-04-25 08:01:00,
2013-04-25 04:06:00,35.9,33.8,30.29,SSW,208,2.0,4.0,92,0.00,,,0.00,VWS V14.01,2013-04-25 08:06:00,
2013-04-25 04:11:00,35.8,33.7,30.29,SW,217,4.0,5.0,92,0.00,,,0.00,VWS V14.01,2013-04-25 08:11:00,
2013-04-25 04:16:00,35.8,33.7,30.29,SW,232,1.0,4.0,92,0.00,,,0.00,VWS V14.01,2013-04-25 08:16:00,
2013-04-25 04:21:00,35.8,33.7,30.29,SSW,200,1.0,4.0,92,0.00,,,0.00,VWS V14.01,2013-04-25 08:21:00,
2013-04-25 04:26:00,35.7,33.9,30.29,SSW,208,1.0,4.0,93,0.00,,,0.00,VWS V14.01,2013-04-25 08:26:00,
2013-04-25 04:31:00,35.7,33.9,30.29,SW,218,3.0,4.0,93,0.00,,,0.00,VWS V14.01,2013-04-25 08:31:00,
2013-04-25 04:36:00,35.7,33.9,30.29,South,174,2.0,3.0,93,0.00,,,0.00,VWS V14.01,2013-04-25 08:36:00,
2013-04-25 04:41:00,35.6,33.8,30.29,SSW,195,2.0,4.0,93,0.00,,,0.00,VWS V14.01,2013-04-25 08:41:00,
2013-04-25 04:46:00,35.6,33.8,30.29,SSW,203,3.0,3.0,93,0.00,,,0.00,VWS V14.01,2013-04-25 08:46:00,
2013-04-25 04:51:00,35.5,33.7,30.29,SSW,197,0.0,1.0,93,0.00,,,0.00,VWS V14.01,2013-04-25 08:51:00,
2013-04-25 04:56:00,35.4,33.6,30.29,South,174,0.0,2.0,93,0.00,,,0.00,VWS V14.01,2013-04-25 08:56:00,
2013-04-25 05:01:00,35.3,33.5,30.30,SSW,200,2.0,2.0,93,0.00,,CLR,0.00,VWS V14.01,2013-04-25 09:01:00,
2013-04-25 05:06:00,35.4,33.8,30.30,SSW,212,1.0,2.0,94,0.00,,CLR,0.00,VWS V14.01,2013-04-25 09:06:00,
2013-04-25 05:11:00,35.4,33.8,30.30,SSW,201,2.0,2.0,94,0.00,,CLR,0.00,VWS V14.01,2013-04-25 09:11:00,
2013-04-25 05:16:00,35.3,33.5,30.30,SSW,205,2.0,2.0,93,0.00,,CLR,0.00,VWS V14.01,2013-04-25 09:16:00,
2013-04-25 05:21:00,35.2,33.4,30.30,South,169,0.0,1.0,93,0.00,,CLR,0.00,VWS V14.01,2013-04-25 09:21:00,
2013-04-25 05:26:00,35.0,33.2,30.29,SSW,205,0.0,0.0,93,0.00,,CLR,0.00,VWS V14.01,2013-04-25 09:26:00,
2013-04-25 05:31:00,34.8,33.0,30.29,SSE,165,0.0,1.0,93,0.00,,CLR,0.00,VWS V14.01,2013-04-25 09:31:00,
2013-04-25 05:36:00,34.7,33.2,30.29,SSE,160,1.0,1.0,94,0.00,,CLR,0.00,VWS V14.01,2013-04-25 09:36:00,
2013-04-25 05:41:00,34.7,33.2,30.30,SSW,207,1.0,1.0,94,0.00,,CLR,0.00,VWS V14.01,2013-04-25 09:41:00,
2013-04-25 05:46:00,34.7,33.2,30.30,South,191,1.0,2.0,94,0.00,,CLR,0.00,VWS V14.01,2013-04-25 09:46:00,
2013-04-25 05:51:00,34.8,33.2,30.30,SSW,198,0.0,2.0,94,0.00,,CLR,0.00,VWS V14.01,2013-04-25 09:51:00,
2013-04-25 05:56:00,34.9,33.3,30.30,SSW,203,0.0,1.0,94,0.00,,CLR,0.00,VWS V14.01,2013-04-25 09:56:00,
2013-04-25 06:01:00,34.9,33.6,30.30,SSW,203,0.0,0.0,95,0.00,,CLR,0.00,VWS V14.01,2013-04-25 10:01:00,
2013-04-25 06:06:00,34.9,33.6,30.30,SSW,203,0.0,0.0,95,0.00,,CLR,0.00,VWS V14.01,2013-04-25 10:06:00,
2013-04-25 06:11:00,34.5,33.0,30.30,SSW,203,0.0,0.0,94,0.00,,CLR,0.00,VWS V14.01,2013-04-25 10:11:00,
2013-04-25 06:16:00,34.5,33.2,30.30,South,181,0.0,1.0,95,0.00,,CLR,0.00,VWS V14.01,2013-04-25 10:16:00,
2013-04-25 06:21:00,34.5,33.2,30.30,SSW,205,1.0,1.0,95,0.00,,CLR,0.00,VWS V14.01,2013-04-25 10:21:00,
2013-04-25 06:26:00,34.8,33.5,30.30,SSE,160,1.0,1.0,95,0.00,,CLR,0.00,VWS V14.01,2013-04-25 10:26:00,
2013-04-25 06:31:00,34.7,33.4,30.30,SSW,201,1.0,1.0,95,0.00,,CLR,0.00,VWS V14.01,2013-04-25 10:31:00,
2013-04-25 06:36:00,34.7,33.2,30.31,SW,217,0.0,1.0,94,0.00,,CLR,0.00,VWS V14.01,2013-04-25 10:36:00,
2013-04-25 06:41:00,34.7,33.2,30.31,SSW,203,1.0,2.0,94,0.00,,CLR,0.00,VWS V14.01,2013-04-25 10:41:00,
2013-04-25 06:46:00,34.8,33.5,30.32,South,190,2.0,2.0,95,0.00,,CLR,0.00,VWS V14.01,2013-04-25 10:46:00,
2013-04-25 06:51:00,35.0,33.5,30.32,SSW,208,3.0,3.0,94,0.00,,CLR,0.00,VWS V14.01,2013-04-25 10:51:00,
2013-04-25 06:56:00,35.5,34.2,30.32,SSW,211,0.0,2.0,95,0.00,,CLR,0.00,VWS V14.01,2013-04-25 10:56:00,
2013-04-25 07:01:00,35.6,34.0,30.32,WSW,257,0.0,4.0,94,0.00,,,0.00,VWS V14.01,2013-04-25 11:01:00,
2013-04-25 07:06:00,35.9,34.1,30.32,SW,219,5.0,5.0,93,0.00,,,0.00,VWS V14.01,2013-04-25 11:06:00,
2013-04-25 07:11:00,36.1,34.3,30.32,SW,236,3.0,3.0,93,0.00,,,0.00,VWS V14.01,2013-04-25 11:11:00,
2013-04-25 07:16:00,36.6,34.8,30.33,SW,224,2.0,6.0,93,0.00,,,0.00,VWS V14.01,2013-04-25 11:16:00,
2013-04-25 07:21:00,36.8,34.7,30.32,SW,232,4.0,5.0,92,0.00,,,0.00,VWS V14.01,2013-04-25 11:21:00,
2013-04-25 07:26:00,37.0,34.6,30.32,SSW,206,2.0,4.0,91,0.00,,,0.00,VWS V14.01,2013-04-25 11:26:00,
2013-04-25 07:31:00,37.1,34.7,30.32,SW,222,1.0,5.0,91,0.00,,,0.00,VWS V14.01,2013-04-25 11:31:00,
2013-04-25 07:36:00,37.3,34.9,30.33,WSW,242,2.0,4.0,91,0.00,,,0.00,VWS V14.01,2013-04-25 11:36:00,
2013-04-25 07:41:00,37.5,35.1,30.33,SW,224,4.0,5.0,91,0.00,,,0.00,VWS V14.01,2013-04-25 11:41:00,
2013-04-25 07:46:00,37.7,35.3,30.33,WSW,245,3.0,5.0,91,0.00,,,0.00,VWS V14.01,2013-04-25 11:46:00,
2013-04-25 07:51:00,37.7,35.0,30.33,SSW,199,1.0,4.0,90,0.00,,,0.00,VWS V14.01,2013-04-25 11:51:00,
2013-04-25 07:56:00,37.9,35.2,30.33,WSW,245,6.0,6.0,90,0.00,,,0.00,VWS V14.01,2013-04-25 11:56:00,
2013-04-25 08:01:00,38.1,35.4,30.33,SSW,212,1.0,6.0,90,0.00,,,0.00,VWS V14.01,2013-04-25 12:01:00,
2013-04-25 08:06:00,38.4,35.5,30.33,WNW,295,1.0,5.0,89,0.00,,,0.00,VWS V14.01,2013-04-25 12:06:00,
2013-04-25 08:11:00,38.5,35.5,30.33,SW,236,4.0,6.0,89,0.00,,,0.00,VWS V14.01,2013-04-25 12:11:00,
2013-04-25 08:16:00,38.8,36.1,30.33,SSW,210,2.0,4.0,90,0.00,,,0.00,VWS V14.01,2013-04-25 12:16:00,
2013-04-25 08:21:00,39.2,36.0,30.33,SW,218,4.0,6.0,88,0.00,,,0.00,VWS V14.01,2013-04-25 12:21:00,
2013-04-25 08:26:00,39.3,35.8,30.33,SW,235,8.0,11.0,87,0.00,,,0.00,VWS V14.01,2013-04-25 12:26:00,
2013-04-25 08:31:00,39.7,36.4,30.33,SW,219,3.0,6.0,88,0.00,,,0.00,VWS V14.01,2013-04-25 12:31:00,
2013-04-25 08:36:00,40.1,36.5,30.33,WSW,245,9.0,9.0,87,0.00,,,0.00,VWS V14.01,2013-04-25 12:36:00,
2013-04-25 08:41:00,40.1,36.3,30.33,SSW,210,4.0,6.0,86,0.00,,,0.00,VWS V14.01,2013-04-25 12:41:00,
2013-04-25 08:46:00,40.5,36.3,30.32,SSW,211,6.0,6.0,85,0.00,,,0.00,VWS V14.01,2013-04-25 12:46:00,
2013-04-25 08:51:00,41.0,36.8,30.33,SSW,205,4.0,6.0,85,0.00,,,0.00,VWS V14.01,2013-04-25 12:51:00,
2013-04-25 08:56:00,41.2,36.7,30.33,WSW,243,6.0,8.0,84,0.00,,,0.00,VWS V14.01,2013-04-25 12:56:00,
2013-04-25 09:01:00,41.2,36.4,30.33,WSW,252,4.0,9.0,83,0.00,,CLR,0.00,VWS V14.01,2013-04-25 13:01:00,
2013-04-25 09:06:00,41.5,36.4,30.33,SW,233,6.0,9.0,82,0.00,,CLR,0.00,VWS V14.01,2013-04-25 13:06:00,
2013-04-25 09:11:00,41.9,37.1,30.33,SW,231,6.0,8.0,83,0.00,,CLR,0.00,VWS V14.01,2013-04-25 13:11:00,
2013-04-25 09:16:00,42.3,37.2,30.33,SW,229,3.0,8.0,82,0.00,,CLR,0.00,VWS V14.01,2013-04-25 13:16:00,
2013-04-25 09:21:00,42.8,38.0,30.33,West,266,3.0,5.0,83,0.00,,CLR,0.00,VWS V14.01,2013-04-25 13:21:00,
2013-04-25 09:26:00,43.4,37.7,30.33,SW,219,4.0,10.0,80,0.00,,CLR,0.00,VWS V14.01,2013-04-25 13:26:00,
2013-04-25 09:31:00,43.2,36.8,30.33,SSW,193,6.0,11.0,78,0.00,,CLR,0.00,VWS V14.01,2013-04-25 13:31:00,
2013-04-25 09:36:00,43.9,38.1,30.33,SW,226,8.0,9.0,80,0.00,,CLR,0.00,VWS V14.01,2013-04-25 13:36:00,
2013-04-25 09:41:00,44.1,37.7,30.33,SW,215,9.0,10.0,78,0.00,,CLR,0.00,VWS V14.01,2013-04-25 13:41:00,
2013-04-25 09:45:00,43.9,37.5,30.34,SW,219,2.0,9.0,78,0.00,,CLR,0.00,VWS V14.01,2013-04-25 13:45:00,
2013-04-25 09:50:00,44.7,38.6,30.33,SW,214,2.0,8.0,79,0.00,,CLR,0.00,VWS V14.01,2013-04-25 13:50:00,
2013-04-25 09:55:00,45.2,38.4,30.33,WSW,256,6.0,8.0,77,0.00,,CLR,0.00,VWS V14.01,2013-04-25 13:55:00,
2013-04-25 10:00:00,45.2,37.4,30.34,SW,231,9.0,11.0,74,0.00,,CLR,0.00,VWS V14.01,2013-04-25 14:00:00,
2013-04-25 10:05:00,45.2,37.4,30.33,SSW,213,8.0,10.0,74,0.00,,CLR,0.00,VWS V14.01,2013-04-25 14:05:00,
2013-04-25 10:10:00,45.3,36.5,30.33,South,185,3.0,10.0,71,0.00,,CLR,0.00,VWS V14.01,2013-04-25 14:10:00,
2013-04-25 10:15:00,45.7,35.8,30.33,SW,226,9.0,13.0,68,0.00,,CLR,0.00,VWS V14.01,2013-04-25 14:15:00,
2013-04-25 10:20:00,46.1,36.9,30.34,SSW,203,6.0,11.0,70,0.00,,CLR,0.00,VWS V14.01,2013-04-25 14:20:00,
2013-04-25 10:25:00,46.5,37.3,30.33,SW,224,9.0,9.0,70,0.00,,CLR,0.00,VWS V14.01,2013-04-25 14:25:00,
2013-04-25 10:30:00,46.4,34.5,30.33,WSW,250,4.0,13.0,63,0.00,,CLR,0.00,VWS V14.01,2013-04-25 14:30:00,
2013-04-25 10:35:00,46.7,35.2,30.33,SW,222,15.0,15.0,64,0.00,,CLR,0.00,VWS V14.01,2013-04-25 14:35:00,
2013-04-25 10:40:00,46.8,34.5,30.33,SW,225,9.0,18.0,62,0.00,,CLR,0.00,VWS V14.01,2013-04-25 14:40:00,
2013-04-25 10:45:00,47.1,36.0,30.33,WSW,246,12.0,14.0,65,0.00,,CLR,0.00,VWS V14.01,2013-04-25 14:45:00,
2013-04-25 10:50:00,47.1,34.4,30.33,WSW,245,8.0,15.0,61,0.00,,CLR,0.00,VWS V14.01,2013-04-25 14:50:00,
2013-04-25 10:55:00,47.2,34.0,30.33,SW,236,14.0,14.0,60,0.00,,CLR,0.00,VWS V14.01,2013-04-25 14:55:00,
2013-04-25 11:00:00,47.3,33.3,30.33,SW,221,13.0,17.0,58,0.00,,FEW032,0.00,VWS V14.01,2013-04-25 15:00:00,
2013-04-25 11:05:00,47.5,34.3,30.33,SW,231,8.0,14.0,60,0.00,,FEW032,0.00,VWS V14.01,2013-04-25 15:05:00,
2013-04-25 11:10:00,48.0,34.8,30.33,SSE,147,14.0,16.0,60,0.00,,FEW032,0.00,VWS V14.01,2013-04-25 15:10:00,
2013-04-25 11:15:00,48.3,34.7,30.33,NNE,23,8.0,12.0,59,0.00,,FEW032,0.00,VWS V14.01,2013-04-25 15:15:00,
2013-04-25 11:20:00,48.3,34.2,30.33,West,281,5.0,15.0,58,0.00,,FEW032,0.00,VWS V14.01,2013-04-25 15:20:00,
2013-04-25 11:25:00,48.3,33.8,30.33,South,174,12.0,16.0,57,0.00,,FEW032,0.00,VWS V14.01,2013-04-25 15:25:00,
2013-04-25 11:30:00,48.4,34.3,30.33,SW,214,9.0,14.0,58,0.00,,FEW032,0.00,VWS V14.01,2013-04-25 15:30:00,
2013-04-25 11:35:00,49.2,35.5,30.34,SSW,194,7.0,12.0,59,0.00,,FEW032,0.00,VWS V14.01,2013-04-25 15:35:00,
2013-04-25 11:40:00,49.4,36.1,30.33,SW,217,10.0,11.0,60,0.00,,FEW032,0.00,VWS V14.01,2013-04-25 15:40:00,
2013-04-25 11:45:00,49.5,34.5,30.33,SSW,204,4.0,13.0,56,0.00,,FEW032,0.00,VWS V14.01,2013-04-25 15:45:00,
2013-04-25 11:50:00,49.8,34.3,30.33,SW,231,11.0,12.0,55,0.00,,FEW032,0.00,VWS V14.01,2013-04-25 15:50:00,
2013-04-25 11:55:00,49.8,34.8,30.34,WSW,252,6.0,18.0,56,0.00,,FEW032,0.00,VWS V14.01,2013-04-25 15:55:00,
2013-04-25 12:00:00,49.9,34.8,30.34,West,264,7.0,16.0,56,0.00,,SCT039,0.00,VWS V14.01,2013-04-25 16:00:00,
2013-04-25 12:05:00,49.6,35.5,30.33,South,190,6.0,16.0,58,0.00,,SCT039,0.00,VWS V14.01,2013-04-25 16:05:00,
2013-04-25 12:10:00,50.4,34.9,30.33,WSW,250,5.0,10.0,55,0.00,,SCT039,0.00,VWS V14.01,2013-04-25 16:10:00,
2013-04-25 12:15:00,50.4,34.9,30.33,SW,214,8.0,14.0,55,0.00,,SCT039,0.00,VWS V14.01,2013-04-25 16:15:00,
2013-04-25 12:20:00,49.9,34.4,30.33,SSW,207,7.0,13.0,55,0.00,,SCT039,0.00,VWS V14.01,2013-04-25 16:20:00,
2013-04-25 12:25:00,50.4,34.9,30.33,WSW,254,7.0,11.0,55,0.00,,SCT039,0.00,VWS V14.01,2013-04-25 16:25:00,
2013-04-25 12:30:00,51.0,34.5,30.33,SW,236,15.0,17.0,53,0.00,,SCT039,0.00,VWS V14.01,2013-04-25 16:30:00,
2013-04-25 12:35:00,51.2,35.1,30.33,SSW,208,10.0,15.0,54,0.00,,SCT039,0.00,VWS V14.01,2013-04-25 16:35:00,
2013-04-25 12:40:00,50.9,34.4,30.33,SSW,205,9.0,15.0,53,0.00,,SCT039,0.00,VWS V14.01,2013-04-25 16:40:00,
2013-04-25 12:45:00,51.6,35.5,30.33,SSW,211,12.0,17.0,54,0.00,,SCT039,0.00,VWS V14.01,2013-04-25 16:45:00,
2013-04-25 12:50:00,51.7,33.7,30.33,South,190,10.0,17.0,50,0.00,,SCT039,0.00,VWS V14.01,2013-04-25 16:50:00,
2013-04-25 12:55:00,51.5,34.5,30.32,SW,225,12.0,12.0,52,0.00,,SCT039,0.00,VWS V14.01,2013-04-25 16:55:00,
2013-04-25 13:00:00,51.9,34.4,30.32,WSW,250,6.0,11.0,51,0.00,,BKN055,0.00,VWS V14.01,2013-04-25 17:00:00,
2013-04-25 13:05:00,52.6,36.0,30.32,WNW,284,9.0,15.0,53,0.00,,BKN055,0.00,VWS V14.01,2013-04-25 17:05:00,
2013-04-25 13:10:00,52.5,35.9,30.32,SW,221,6.0,12.0,53,0.00,,BKN055,0.00,VWS V14.01,2013-04-25 17:10:00,
2013-04-25 13:15:00,52.3,34.2,30.33,WSW,239,7.0,17.0,50,0.00,,BKN055,0.00,VWS V14.01,2013-04-25 17:15:00,
2013-04-25 13:20:00,52.7,35.6,30.33,WSW,257,6.0,13.0,52,0.00,,BKN055,0.00,VWS V14.01,2013-04-25 17:20:00,
2013-04-25 13:25:00,52.8,35.7,30.32,SSW,205,6.0,14.0,52,0.00,,BKN055,0.00,VWS V14.01,2013-04-25 17:25:00,
2013-04-25 13:30:00,52.8,35.2,30.32,SSW,207,6.0,11.0,51,0.00,,BKN055,0.00,VWS V14.01,2013-04-25 17:30:00,
2013-04-25 13:35:00,52.9,34.8,30.32,WSW,245,6.0,14.0,50,0.00,,BKN055,0.00,VWS V14.01,2013-04-25 17:35:00,
2013-04-25 13:40:00,52.4,34.8,30.32,West,275,4.0,15.0,51,0.00,,BKN055,0.00,VWS V14.01,2013-04-25 17:40:00,
2013-04-25 13:45:00,52.7,34.6,30.32,SSW,202,2.0,12.0,50,0.00,,BKN055,0.00,VWS V14.01,2013-04-25 17:45:00,
2013-04-25 13:50:00,52.8,35.7,30.32,West,263,4.0,9.0,52,0.00,,BKN055,0.00,VWS V14.01,2013-04-25 17:50:00,
2013-04-25 13:55:00,53.3,35.7,30.31,WSW,244,12.0,14.0,51,0.00,,BKN055,0.00,VWS V14.01,2013-04-25 17:55:00,
2013-04-25 14:00:00,53.5,35.3,30.31,SSW,212,5.0,17.0,50,0.00,,BKN055,0.00,VWS V14.01,2013-04-25 18:00:00,
2013-04-25 14:05:00,54.1,35.9,30.30,SW,222,10.0,14.0,50,0.00,,BKN060,0.00,VWS V14.01,2013-04-25 18:05:00,
2013-04-25 14:10:00,54.7,36.4,30.30,East,81,4.0,14.0,50,0.00,,BKN060,0.00,VWS V14.01,2013-04-25 18:10:00,
2013-04-25 14:15:00,54.6,35.8,30.30,SW,236,11.0,13.0,49,0.00,,BKN060,0.00,VWS V14.01,2013-04-25 18:15:00,
2013-04-25 14:20:00,54.3,35.6,30.31,WSW,255,11.0,12.0,49,0.00,,BKN060,0.00,VWS V14.01,2013-04-25 18:20:00,
2013-04-25 14:25:00,53.9,35.7,30.31,WSW,248,4.0,12.0,50,0.00,,BKN060,0.00,VWS V14.01,2013-04-25 18:25:00,
2013-04-25 14:30:00,53.6,34.9,30.30,SSW,200,7.0,11.0,49,0.00,,BKN060,0.00,VWS V14.01,2013-04-25 18:30:00,
2013-04-25 14:35:00,53.4,35.2,30.31,WSW,248,9.0,18.0,50,0.00,,BKN060,0.00,VWS V14.01,2013-04-25 18:35:00,
2013-04-25 14:40:00,53.5,35.3,30.31,SSW,210,5.0,13.0,50,0.00,,BKN060,0.00,VWS V14.01,2013-04-25 18:40:00,
2013-04-25 14:45:00,53.4,35.7,30.31,SSW,198,7.0,13.0,51,0.00,,BKN060,0.00,VWS V14.01,2013-04-25 18:45:00,
2013-04-25 14:50:00,54.0,36.3,30.31,WSW,245,8.0,14.0,51,0.00,,BKN060,0.00,VWS V14.01,2013-04-25 18:50:00,
2013-04-25 14:55:00,53.8,35.6,30.31,West,269,14.0,16.0,50,0.00,,BKN060,0.00,VWS V14.01,2013-04-25 18:55:00,
2013-04-25 15:00:00,54.2,37.5,30.31,SW,217,6.0,14.0,53,0.00,,BKN060,0.00,VWS V14.01,2013-04-25 19:00:00,
2013-04-25 15:05:00,54.9,36.6,30.30,SW,229,13.0,18.0,50,0.00,,BKN070,0.00,VWS V14.01,2013-04-25 19:05:00,
2013-04-25 15:10:00,54.7,35.9,30.30,West,266,11.0,17.0,49,0.00,,BKN070,0.00,VWS V14.01,2013-04-25 19:10:00,
2013-04-25 15:15:00,54.7,35.9,30.30,WSW,258,12.0,16.0,49,0.00,,BKN070,0.00,VWS V14.01,2013-04-25 19:15:00,
2013-04-25 15:20:00,54.6,35.8,30.30,WSW,237,9.0,20.0,49,0.00,,BKN070,0.00,VWS V14.01,2013-04-25 19:20:00,
2013-04-25 15:25:00,54.5,35.8,30.30,SSW,212,8.0,13.0,49,0.00,,BKN070,0.00,VWS V14.01,2013-04-25 19:25:00,
2013-04-25 15:30:00,54.3,35.6,30.30,WSW,249,8.0,21.0,49,0.00,,BKN070,0.00,VWS V14.01,2013-04-25 19:30:00,
2013-04-25 15:35:00,53.6,35.9,30.30,West,260,7.0,14.0,51,0.00,,BKN070,0.00,VWS V14.01,2013-04-25 19:35:00,
2013-04-25 15:40:00,54.0,37.3,30.30,SW,225,5.0,9.0,53,0.00,,BKN070,0.00,VWS V14.01,2013-04-25 19:40:00,
2013-04-25 15:45:00,54.4,36.7,30.29,SE,139,6.0,12.0,51,0.00,,BKN070,0.00,VWS V14.01,2013-04-25 19:45:00,
2013-04-25 15:50:00,54.6,36.8,30.29,SW,215,16.0,16.0,51,0.00,,BKN070,0.00,VWS V14.01,2013-04-25 19:50:00,
2013-04-25 15:55:00,54.2,36.5,30.30,SSW,207,3.0,15.0,51,0.00,,BKN070,0.00,VWS V14.01,2013-04-25 19:55:00,
2013-04-25 16:00:00,54.1,36.9,30.30,WSW,252,10.0,17.0,52,0.00,,BKN070,0.00,VWS V14.01,2013-04-25 20:00:00,
2013-04-25 16:05:00,53.9,37.2,30.29,SW,224,9.0,10.0,53,0.00,,OVC095,0.00,VWS V14.01,2013-04-25 20:05:00,
2013-04-25 16:10:00,54.0,37.8,30.29,SW,228,3.0,9.0,54,0.00,,OVC095,0.00,VWS V14.01,2013-04-25 20:10:00,
2013-04-25 16:15:00,54.3,37.1,30.29,SSW,195,8.0,12.0,52,0.00,,OVC095,0.00,VWS V14.01,2013-04-25 20:15:00,
2013-04-25 16:20:00,54.8,37.0,30.29,West,263,15.0,16.0,51,0.00,,OVC095,0.00,VWS V14.01,2013-04-25 20:20:00,
2013-04-25 16:25:00,55.4,36.6,30.29,SW,236,6.0,19.0,49,0.00,,OVC095,0.00,VWS V14.01,2013-04-25 20:25:00,
2013-04-25 16:30:00,55.1,36.3,30.29,WSW,253,12.0,13.0,49,0.00,,OVC095,0.00,VWS V14.01,2013-04-25 20:30:00,
2013-04-25 16:35:00,55.0,36.2,30.29,WSW,252,10.0,23.0,49,0.00,,OVC095,0.00,VWS V14.01,2013-04-25 20:35:00,
2013-04-25 16:40:00,54.6,36.3,30.29,SW,232,9.0,13.0,50,0.00,,OVC095,0.00,VWS V14.01,2013-04-25 20:40:00,
2013-04-25 16:45:00,54.3,36.1,30.29,WSW,253,3.0,15.0,50,0.00,,OVC095,0.00,VWS V14.01,2013-04-25 20:45:00,
2013-04-25 16:50:00,54.4,36.7,30.29,WNW,289,4.0,11.0,51,0.00,,OVC095,0.00,VWS V14.01,2013-04-25 20:50:00,
2013-04-25 16:55:00,54.7,40.2,30.29,WSW,248,8.0,11.0,58,0.00,,OVC095,0.00,VWS V14.01,2013-04-25 20:55:00,
2013-04-25 17:00:00,54.2,39.3,30.29,West,276,7.0,12.0,57,0.00,,OVC095,0.00,VWS V14.01,2013-04-25 21:00:00,
2013-04-25 17:05:00,53.9,39.0,30.29,West,269,7.0,9.0,57,0.00,,BKN090,0.00,VWS V14.01,2013-04-25 21:05:00,
2013-04-25 17:10:00,54.0,38.7,30.29,SSW,210,6.0,9.0,56,0.00,,BKN090,0.00,VWS V14.01,2013-04-25 21:10:00,
2013-04-25 17:15:00,54.4,38.1,30.29,WNW,291,8.0,16.0,54,0.00,,BKN090,0.00,VWS V14.01,2013-04-25 21:15:00,
2013-04-25 17:20:00,55.4,37.6,30.29,WSW,253,9.0,14.0,51,0.00,,BKN090,0.00,VWS V14.01,2013-04-25 21:20:00,
2013-04-25 17:25:00,56.4,37.0,30.29,West,269,13.0,19.0,48,0.00,,BKN090,0.00,VWS V14.01,2013-04-25 21:25:00,
2013-04-25 17:30:00,56.3,37.4,30.29,WNW,298,5.0,15.0,49,0.00,,BKN090,0.00,VWS V14.01,2013-04-25 21:30:00,
2013-04-25 17:35:00,56.1,36.7,30.29,WSW,242,10.0,16.0,48,0.00,,BKN090,0.00,VWS V14.01,2013-04-25 21:35:00,
2013-04-25 17:40:00,56.5,37.6,30.29,West,274,11.0,15.0,49,0.00,,BKN090,0.00,VWS V14.01,2013-04-25 21:40:00,
2013-04-25 17:45:00,56.6,36.6,30.30,West,268,13.0,17.0,47,0.00,,BKN090,0.00,VWS V14.01,2013-04-25 21:45:00,
2013-04-25 17:50:00,56.8,36.8,30.30,WSW,243,11.0,16.0,47,0.00,,BKN090,0.00,VWS V14.01,2013-04-25 21:50:00,
2013-04-25 17:55:00,57.1,36.5,30.30,WSW,252,11.0,18.0,46,0.00,,BKN090,0.00,VWS V14.01,2013-04-25 21:55:00,
2013-04-25 18:00:00,56.5,36.5,30.30,WSW,248,6.0,13.0,47,0.00,,BKN090,0.00,VWS V14.01,2013-04-25 22:00:00,
2013-04-25 18:05:00,55.8,36.4,30.30,SSW,203,4.0,13.0,48,0.00,,OVC095,0.00,VWS V14.01,2013-04-25 22:05:00,
2013-04-25 18:10:00,55.5,36.7,30.30,WSW,248,7.0,10.0,49,0.00,,OVC095,0.00,VWS V14.01,2013-04-25 22:10:00,
2013-04-25 18:15:00,55.4,37.1,30.30,WSW,239,8.0,9.0,50,0.00,,OVC095,0.00,VWS V14.01,2013-04-25 22:15:00,
2013-04-25 18:20:00,55.5,36.7,30.30,WSW,251,8.0,12.0,49,0.00,,OVC095,0.00,VWS V14.01,2013-04-25 22:20:00,
2013-04-25 18:25:00,55.5,37.2,30.30,West,266,2.0,8.0,50,0.00,,OVC095,0.00,VWS V14.01,2013-04-25 22:25:00,
2013-04-25 18:30:00,55.5,36.2,30.30,WNW,289,10.0,13.0,48,0.00,,OVC095,0.00,VWS V14.01,2013-04-25 22:30:00,
2013-04-25 18:35:00,55.3,36.5,30.30,WSW,241,12.0,13.0,49,0.00,,OVC095,0.00,VWS V14.01,2013-04-25 22:35:00,
2013-04-25 18:40:00,55.1,36.3,30.30,SW,231,9.0,17.0,49,0.00,,OVC095,0.00,VWS V14.01,2013-04-25 22:40:00,
2013-04-25 18:45:00,55.1,35.8,30.31,WNW,293,11.0,12.0,48,0.00,,OVC095,0.00,VWS V14.01,2013-04-25 22:45:00,
2013-04-25 18:50:00,54.8,36.5,30.31,NW,304,8.0,16.0,50,0.00,,OVC095,0.00,VWS V14.01,2013-04-25 22:50:00,
2013-04-25 18:55:00,54.8,37.5,30.31,NW,316,8.0,15.0,52,0.00,,OVC095,0.00,VWS V14.01,2013-04-25 22:55:00,
2013-04-25 19:00:00,54.6,36.8,30.31,West,278,5.0,13.0,51,0.00,,OVC095,0.00,VWS V14.01,2013-04-25 23:00:00,
2013-04-25 19:05:00,54.5,37.2,30.31,WNW,295,11.0,15.0,52,0.00,,FEW060,0.00,VWS V14.01,2013-04-25 23:05:00,
2013-04-25 19:10:00,54.3,36.6,30.31,NW,326,10.0,17.0,51,0.00,,FEW060,0.00,VWS V14.01,2013-04-25 23:10:00,
2013-04-25 19:15:00,54.1,36.4,30.32,WNW,293,11.0,16.0,51,0.00,,FEW060,0.00,VWS V14.01,2013-04-25 23:15:00,
2013-04-25 19:20:00,53.8,36.6,30.32,WNW,294,8.0,14.0,52,0.00,,FEW060,0.00,VWS V14.01,2013-04-25 23:20:00,
2013-04-25 19:25:00,53.6,36.4,30.32,WNW,290,7.0,13.0,52,0.00,,FEW060,0.00,VWS V14.01,2013-04-25 23:25:00,
2013-04-25 19:30:00,53.5,35.3,30.33,NW,312,13.0,21.0,50,0.00,,FEW060,0.00,VWS V14.01,2013-04-25 23:30:00,
2013-04-25 19:35:00,53.0,33.8,30.33,WNW,298,18.0,20.0,48,0.00,,FEW060,0.00,VWS V14.01,2013-04-25 23:35:00,
2013-04-25 19:40:00,52.7,34.1,30.34,WNW,303,9.0,13.0,49,0.00,,FEW060,0.00,VWS V14.01,2013-04-25 23:40:00,
2013-04-25 19:45:00,52.4,33.3,30.34,NW,322,10.0,18.0,48,0.00,,FEW060,0.00,VWS V14.01,2013-04-25 23:45:00,
2013-04-25 19:50:00,52.3,33.2,30.35,WNW,287,8.0,12.0,48,0.00,,FEW060,0.00,VWS V14.01,2013-04-25 23:50:00,
2013-04-25 19:55:00,52.2,33.6,30.35,WNW,294,10.0,11.0,49,0.00,,FEW060,0.00,VWS V14.01,2013-04-25 23:55:00,
2013-04-25 20:00:00,52.1,32.5,30.35,West,273,7.0,10.0,47,0.00,,FEW060,0.00,VWS V14.01,2013-04-26 00:00:00,
2013-04-25 20:05:00,51.8,31.1,30.35,NW,318,6.0,18.0,45,0.00,,BKN070,0.00,VWS V14.01,2013-04-26 00:05:00,
2013-04-25 20:10:00,51.5,30.9,30.35,WNW,295,9.0,15.0,45,0.00,,BKN070,0.00,VWS V14.01,2013-04-26 00:10:00,
2013-04-25 20:15:00,51.2,30.0,30.35,WNW,296,11.0,18.0,44,0.00,,BKN070,0.00,VWS V14.01,2013-04-26 00:15:00,
2013-04-25 20:20:00,50.9,30.3,30.35,WNW,300,6.0,15.0,45,0.00,,BKN070,0.00,VWS V14.01,2013-04-26 00:20:00,
2013-04-25 20:25:00,50.6,30.1,30.35,NW,304,12.0,20.0,45,0.00,,BKN070,0.00,VWS V14.01,2013-04-26 00:25:00,
2013-04-25 20:30:00,50.3,30.3,30.36,WNW,301,12.0,16.0,46,0.00,,BKN070,0.00,VWS V14.01,2013-04-26 00:30:00,
2013-04-25 20:35:00,50.1,30.7,30.36,NW,316,12.0,17.0,47,0.00,,BKN070,0.00,VWS V14.01,2013-04-26 00:35:00,
2013-04-25 20:40:00,49.9,30.5,30.36,WNW,289,10.0,20.0,47,0.00,,BKN070,0.00,VWS V14.01,2013-04-26 00:40:00,
2013-04-25 20:45:00,49.8,30.4,30.36,WNW,294,10.0,15.0,47,0.00,,BKN070,0.00,VWS V14.01,2013-04-26 00:45:00,
2013-04-25 20:50:00,49.5,29.6,30.37,NW,309,10.0,12.0,46,0.00,,BKN070,0.00,VWS V14.01,2013-04-26 00:50:00,
2013-04-25 20:55:00,49.3,29.4,30.37,WNW,302,8.0,11.0,46,0.00,,BKN070,0.00,VWS V14.01,2013-04-26 00:55:00,
2013-04-25 21:00:00,49.1,28.1,30.37,WNW,285,8.0,14.0,44,0.00,,BKN070,0.00,VWS V14.01,2013-04-26 01:00:00,
2013-04-25 21:05:00,48.9,28.5,30.38,WNW,285,7.0,8.0,45,0.00,,CLR,0.00,VWS V14.01,2013-04-26 01:05:00,
2013-04-25 21:10:00,48.7,28.3,30.38,WNW,298,9.0,12.0,45,0.00,,CLR,0.00,VWS V14.01,2013-04-26 01:10:00,
2013-04-25 21:15:00,48.5,28.1,30.38,WNW,294,7.0,9.0,45,0.00,,CLR,0.00,VWS V14.01,2013-04-26 01:15:00,
2013-04-25 21:20:00,48.4,27.0,30.39,WNW,297,9.0,13.0,43,0.00,,CLR,0.00,VWS V14.01,2013-04-26 01:20:00,
2013-04-25 21:25:00,48.2,26.8,30.39,NW,314,10.0,11.0,43,0.00,,CLR,0.00,VWS V14.01,2013-04-26 01:25:00,
2013-04-25 21:30:00,48.1,26.1,30.39,NW,307,7.0,9.0,42,0.00,,CLR,0.00,VWS V14.01,2013-04-26 01:30:00,
2013-04-25 21:35:00,47.9,25.9,30.39,WNW,299,7.0,7.0,42,0.00,,CLR,0.00,VWS V14.01,2013-04-26 01:35:00,
2013-04-25 21:40:00,47.6,25.7,30.40,WNW,297,3.0,8.0,42,0.00,,CLR,0.00,VWS V14.01,2013-04-26 01:40:00,
2013-04-25 21:45:00,47.4,25.5,30.40,NW,304,3.0,5.0,42,0.00,,CLR,0.00,VWS V14.01,2013-04-26 01:45:00,
2013-04-25 21:50:00,47.1,25.8,30.40,WNW,283,2.0,4.0,43,0.00,,CLR,0.00,VWS V14.01,2013-04-26 01:50:00,
2013-04-25 21:55:00,46.9,25.6,30.40,NW,308,3.0,6.0,43,0.00,,CLR,0.00,VWS V14.01,2013-04-26 01:55:00,
2013-04-25 22:00:00,46.6,25.9,30.40,WNW,303,2.0,3.0,44,0.00,,CLR,0.00,VWS V14.01,2013-04-26 02:00:00,
2013-04-25 22:05:00,46.4,25.7,30.41,NW,304,3.0,3.0,44,0.00,,CLR,0.00,VWS V14.01,2013-04-26 02:05:00,
2013-04-25 22:10:00,46.1,26.0,30.41,WNW,285,1.0,2.0,45,0.00,,CLR,0.00,VWS V14.01,2013-04-26 02:10:00,
2013-04-25 22:15:00,45.9,25.8,30.41,West,278,0.0,2.0,45,0.00,,CLR,0.00,VWS V14.01,2013-04-26 02:15:00,
2013-04-25 22:20:00,45.7,26.1,30.41,West,276,1.0,2.0,46,0.00,,CLR,0.00,VWS V14.01,2013-04-26 02:20:00,
2013-04-25 22:25:00,45.4,26.4,30.41,West,277,1.0,1.0,47,0.00,,CLR,0.00,VWS V14.01,2013-04-26 02:25:00,
2013-04-25 22:30:00,45.1,27.1,30.42,West,276,0.0,1.0,49,0.00,,CLR,0.00,VWS V14.01,2013-04-26 02:30:00,
2013-04-25 22:35:00,44.7,27.7,30.42,West,275,0.0,0.0,51,0.00,,CLR,0.00,VWS V14.01,2013-04-26 02:35:00,
2013-04-25 22:40:00,44.1,29.0,30.42,West,276,0.0,0.0,55,0.00,,CLR,0.00,VWS V14.01,2013-04-26 02:40:00,
2013-04-25 22:45:00,43.4,28.3,30.42,West,276,0.0,0.0,55,0.00,,CLR,0.00,VWS V14.01,2013-04-26 02:45:00,
2013-04-25 22:50:00,42.9,27.0,30.42,West,275,0.0,0.0,53,0.00,,CLR,0.00,VWS V14.01,2013-04-26 02:50:00,
2013-04-25 22:55:00,42.6,27.6,30.42,West,262,0.0,0.0,55,0.00,,CLR,0.00,VWS V14.01,2013-04-26 02:55:00,
2013-04-25 23:00:00,42.3,27.7,30.43,West,262,0.0,0.0,56,0.00,,CLR,0.00,VWS V14.01,2013-04-26 03:00:00,
2013-04-25 23:05:00,41.7,28.9,30.43,West,261,0.0,0.0,60,0.00,,CLR,0.00,VWS V14.01,2013-04-26 03:05:00,
2013-04-25 23:10:00,41.0,27.8,30.43,West,262,0.0,0.0,59,0.00,,CLR,0.00,VWS V14.01,2013-04-26 03:10:00,
2013-04-25 23:15:00,40.5,28.1,30.43,West,262,0.0,0.0,61,0.00,,CLR,0.00,VWS V14.01,2013-04-26 03:15:00,
2013-04-25 23:20:00,40.2,28.2,30.43,SE,138,1.0,1.0,62,0.00,,CLR,0.00,VWS V14.01,2013-04-26 03:20:00,
2013-04-25 23:25:00,40.2,28.2,30.43,SE,131,0.0,1.0,62,0.00,,CLR,0.00,VWS V14.01,2013-04-26 03:25:00,
2013-04-25 23:30:00,39.9,28.3,30.43,SE,131,0.0,1.0,63,0.00,,CLR,0.00,VWS V14.01,2013-04-26 03:30:00,
2013-04-25 23:35:00,39.7,28.5,30.43,SE,131,0.0,0.0,64,0.00,,CLR,0.00,VWS V14.01,2013-04-26 03:35:00,
2013-04-25 23:40:00,39.3,28.2,30.44,SE,131,0.0,0.0,64,0.00,,CLR,0.00,VWS V14.01,2013-04-26 03:40:00,
2013-04-25 23:45:00,39.1,28.3,30.44,SE,131,0.0,0.0,65,0.00,,CLR,0.00,VWS V14.01,2013-04-26 03:45:00,
2013-04-25 23:50:00,38.8,28.8,30.44,SE,131,1.0,1.0,67,0.00,,CLR,0.00,VWS V14.01,2013-04-26 03:50:00,
2013-04-25 23:55:00,38.5,28.5,30.44,SE,131,1.0,1.0,67,0.00,,CLR,0.00,VWS V14.01,2013-04-26 03:55:00,